Regional Weather Roundup
Issued by NWS Wakefield, VA

Home | Current Version | Previous Version | Graphics & Text | Print | Product List | Glossary On
Versions: 1 2 3 4 5 6 7 8 9 10 11 12 13 14 15 16 17 18 19 20 21 22 23 24 25 26 27 28 29 30 31 32 33 34 35 36 37 38 39 40 41 42 43 44 45 46 47 48 49 50
000
ASUS41 KAKQ 241115
RWRAKQ

REGIONAL WEATHER ROUNDUP
NATIONAL WEATHER SERVICE WAKEFIELD VA
700 AM EDT SUN MAY 24 2015

Note: "fair" indicates few or no clouds below 12,000 feet with no
significant weather and/or obstructions to visibility. * = Denotes
station may not report precipitation (e.g., rain,snow,etc.),
thunder or fog.

VAZ042-051-052>054-056-241200-
NORTHERN VIRGINIA

CITY           SKY/WX    TMP DP  RH WIND       PRES   REMARKS
WASH NATIONAL  MOSUNNY   60  51  72 SE5       30.40S
DULLES         MOSUNNY   52  49  89 CALM      30.39R
FORT BELVOIR   SUNNY     51  49  94 CALM      30.40R
QUANTICO       SUNNY     60  51  72 SW7       30.41R
FREDERICKSBRG* SUNNY     56  54  94 SE3       30.40R
STAFFORD*      SUNNY     49  48  94 CALM      30.44R
WARRENTON      SUNNY     53  53  99 CALM      30.38S
CULPEPER*      SUNNY     49  48  99 CALM      30.40S
MANASSAS*      NOT AVBL
LEESBURG*      SUNNY     50  50 100 CALM      30.40R
WINCHESTER     SUNNY     50  45  81 CALM      30.38R
FRONT ROYAL*   FAIR      50  46  87 CALM      30.38R
LURAY*         FAIR      52  52 100 CALM      30.39R
$$

VAZ048-049-060>072-079>083-241200-
CENTRAL AND SOUTH CENTRAL VIRGINIA

CITY           SKY/WX    TMP DP  RH WIND       PRES   REMARKS
RICHMOND       PTSUNNY   54  49  83 CALM      30.41R
CHESTERFIELD*  NOT AVBL
PETERSBURG*    SUNNY     52  51  96 CALM      30.42R
HANOVER        SUNNY     55  49  80 VRB3      30.42R
TAPPAHANNOCK*  SUNNY     52  47  84 CALM      30.41S
QUINTON*       FAIR      54  50  85 S3        30.42R
CHARLOTTSVILLE SUNNY     51  49  92 W5        30.39R
GORDONSVILLE*  FAIR      49  48  96 CALM      30.39R
ORANGE*        SUNNY     54  52  94 CALM      30.41R
LOUISA*        SUNNY     55  52  88 S5        30.39R
BUMPASS*       FAIR      52  50  93 CALM      30.40R
FARMVILLE*     SUNNY     50  50 100 CALM      30.40R
CREWE*         FAIR      53  51  95 CALM      30.41R
FORT PICKETT*  FAIR     N/A N/A N/A SW3       30.42R
CHASE CITY*    FAIR      57  57 100 CALM      30.42R
CLARKSVILLE*   FAIR      54  54 100 CALM      30.41R
SOUTH HILL*    SUNNY     52  51  96 CALM      30.47R
LAWRENCEVILLE* FAIR      54  52  94 CALM      30.41R
EMPORIA*       SUNNY     52  50  93 CALM      30.43S
$$

VAZ088>098-241200-
SOUTHEAST VIRGINIA

CITY           SKY/WX    TMP DP  RH WIND       PRES   REMARKS
NORFOLK        PTSUNNY   59  55  87 S6        30.42R
VIRGINIA BEACH MOSUNNY   60  56  86 VRB3      30.42R
NORFOLK NAVAL  PTSUNNY   65  54  67 S5        30.43R
WEST POINT*    PTSUNNY   59  55  86 S5        30.43S
SALUDA*        PTSUNNY   56  52  85 SE5       30.41S
NEWPORT NEWS   PTSUNNY   62  55  77 CALM      30.42R
LANGLEY AFB    PTSUNNY   61  56  84 S6        30.41R
FORT EUSTIS    MOSUNNY   62  59  91 S6        30.40R
WILLIAMSBURG*  MOSUNNY   64  57  77 S6        30.43R
HR EXEC AP*    CLOUDY    55  54  94 SE3       30.44R
FRANKLIN*      MOSUNNY   51  49  94 CALM      30.43R
WAKEFIELD      MOSUNNY   53  50  89 CALM      30.42R
$$

VAZ020-022-025-037-045-241200-
WEST CENTRAL AND SOUTHWEST VIRGINIA

CITY           SKY/WX    TMP DP  RH WIND       PRES   REMARKS
STAUNTON*      SUNNY     49  47  93 CALM      30.41S
WAYNESBORO*    FAIR      49  47  93 CALM      30.40S
HOT SPRINGS VA CLEAR     55  44  64 SW9       30.43R
LYNCHBURG      CLEAR     51  49  92 CALM      30.42R
DANVILLE       CLEAR     53  50  89 CALM      30.42R
SOUTH BOSTON*  FAIR      51  50  95 CALM      30.42R
MARTINSVILLE   CLEAR     47  47 100 CALM      30.44R
ROANOKE        CLEAR     52  49  89 VRB3      30.42R
BLACKSBURG     CLEAR     48  46  93 CALM      30.45R
DUBLIN*        CLEAR     50  50  98 CALM      30.43S
MARION*        CLEAR     49  44  82 CALM      30.44S
HILLSVILLE*    CLEAR     55  46  73 S5        30.43R
RICHLANDS*     FAIR      60  29  31 SE5       30.40R
WISE*          CLEAR     55  41  58 S5        30.42R
ABINGDON*      CLEAR     55  45  68 CALM      30.39R
$$

MDZ021>025-VAZ099-100-241200-
SOUTHERN MARYLAND AND THE DELMARVA PENINSULA

CITY           SKY/WX    TMP DP  RH WIND       PRES   REMARKS
PATUXENT RIVER PTSUNNY   58  51  78 SE3       30.40R
BAY BRIDGE APT   N/A    N/A N/A N/A S3        30.40S
LEONARDTOWN    MOSUNNY   55  46  71 SW3       30.42S
DOVER          SUNNY     56  56 100 S8        30.36S
GEORGETOWN     SUNNY     52  49  89 SW6       30.42R
EASTON         MOSUNNY   55  55 100 CALM      30.44R
CAMBRIDGE      SUNNY     54  52  94 CALM      30.40S
SALISBURY      SUNNY     51  49  92 CALM      30.42R
OCEAN CITY     SUNNY     60  54  80 SW7       30.42R
WALLOPS ISLAND SUNNY     60  54  80 S9        30.43R
ACCOMACK*      SUNNY     55  54  94 CALM      30.42S
$$

NCZ012>017-030>032-241200-
NORTH CENTRAL AND EASTERN NORTH CAROLINA

CITY           SKY/WX    TMP DP  RH WIND       PRES   REMARKS
ROANOKE RAPIDS FAIR      50  50 100 CALM      30.42R
RALEIGH        PTCLDY    58  54  86 CALM      30.42R
ELIZABETH CITY   N/A     59  57  93 E3        30.42R
AHOSKIE*       SUNNY     51  49  93 CALM      30.43R
EDENTON*       SUNNY     55  53  93 CALM      30.42R
CURRITUCK*     SUNNY     58  54  88 CALM      30.43S
KILL DEVIL HLS SUNNY     62  54  74 E3        30.41R
MANTEO         SUNNY     63  53  71 E5        30.43R
CAPE HATTERAS  SUNNY     63  57  81 E6        30.41R
TARBORO*       FAIR      52  51  97 CALM      30.43R
GOLDSBORO      SUNNY     56  53  89 CALM      30.40R
WASHINGTON     SUNNY     56  53  90 CALM      30.42R
GREENVILLE     SUNNY     55  54  94 CALM      30.42R
NEW BERN       SUNNY     60  56  86 CALM      30.42R
WILMINGTON     CLEAR     61  59  93 CALM      30.39R
$$

VAZ048-241200-
ELSEWHERE

CITY           SKY/WX    TMP DP  RH WIND       PRES   REMARKS
HARRISBURG PA  SUNNY     54  45  71 CALM      30.37R
BALTIMORE      MOSUNNY   52  46  80 CALM      30.39S
ANNAPOLIS      MOSUNNY   58  52  80 S6        30.39S
ANDREWS AFB    SUNNY     54  49  82 S6        30.39R
PHILADELPHIA   MOSUNNY   56  50  80 SW7       30.40S
HENDERSON NC   SUNNY     56  53  92 CALM      30.42R
GREENSBORO     MOCLDY    57  52  83 SW3       30.42R
ROCKY MOUNT    SUNNY     55  54  96 CALM      30.42R
$$

VAZ100-241200-
MARINE

STATION/POSITION TIME  TEMP    WIND        PRES    WAVE   SWELL
                       AIR SEA DIR/SP/G            HT/PER HT/PER
                 (UTC) (F)     (DEG/KT/KT) (MB)    (FT/S) (FT/S)
BRANDYWINE LGT   1000   58 62  230/ 11/ 13 1029.5R
CAPE MAY NJ      1000   57 66  200/  6/  8 1029.2R
LEWES DE         1000   54 62  210/  5/  8 1029.4R
15NM E FENWICK I 1050   59 59              1029.9R   1/ 8
OCEAN-CITY-INLET 1000   59 60  220/  7/  9 1029.5R
WACHAPREAGUE VA  1000   61 67  200/  7/ 10 1030.1R
THOMAS POINT MD  1100   61 65  190/  9/ 10 1030.0R
GOOSES REEF MD   1100   61 64  220/  8/ 10 1030.4R   1/ 3
SOLOMONS ISLAND  1000      67                N/A
BISHOPS HEAD MD  1000   63 65  170/ 12/ 14 1029.0R
PINEY POINT MD   1000          190/  6/  7   N/A
CAMBRIDGE MD     1000   55 70  130/  1/  2 1029.2R
LEWISETTA VA     1000   60 67              1029.2R
RAPPAHANNOCK LGT 1000          160/ 12/ 14 1030.2R
STINGRAY PT      1100   64 69  200/ 10/ 12 1029.3R   1/ 3
YORK RVR RNG VA  1000   63     180/ 13/ 15 1028.8R
YORKTOWN VA      1000   59 70  170/  4/  5 1029.3R
JAMESTOWN VA     1100   59 73  160/  6/  8 1029.1
DOMINION TERM VA 1000   63     150/  8/ 10 1029.7R
KIPTOPEKE VA     1000      72  160/  7/  9   N/A
CHES BAY BRIDGE  1000   62 65  130/  8/ 10 1029.3R
CAPE HENRY VA    1000   60     160/  7/  9 1028.6R
CHESAPEAKE LGHT  1000   60     160/ 10/ 10 1030.7R
WILLOUBY STN VA  1000   60     160/ 10/ 11 1030.2R
CAPE HENRY BUOY  1028      61                N/A     2/ 6
1ST LANDING BUOY 1100      65              1029.7R
CAPE CHARLES BUO 1026      64                N/A     2/ 6   2/ 6
OFFSHORE WE BUOY 1011      60                N/A     2/ 6   2/ 6
64NM E OF VA BCH 1050   62 60  110/  4/  6 1030.1R   2/ 6   2/ 6
DUCK PIER NC     1000   62 64  100/  9/ 10 1028.7R
44100 DUCK FRF   1024      62                N/A     2/ 6
44056 DUCK FRF   1011      63                N/A     2/ 6
OREGON INLET NC  1000   63 67   60/  8/ 10 1029.7R
HATTERAS NC      1000   64 73   70/  4/  6 1028.9R
DIAMOND SHLS NC  1050   73 77   70/  4/  6 1029.7R   2/ 8   2/ 8
CAPE LOOKOUT NC  1100   73     100/  4/  5 1029.1R
$$



USA.gov is the U.S. government's official web portal to all federal, state and local government web resources and services.